[[{"header":{"parameterUnit":"m.s-1","parameterCategory":1,"la1":30.2991,"la2":30.254,"lo1":-89.0895,"lo2":-89.0444,"dy":0.0017,"dx":0.0017,"nx":28,"ny":28,"refTime":"2025-11-04T03:00:00:Z","depth":0,"parameterNumber":2,"parameterNumberName":"U-component_of_WINDS"},"data":[0,0,0,0,0,0,0,0,0,0,0,0,0,0,0,0,0,0,0,0,0,0,0,0,0,0,0,0,0,0,0,0,0,0,0,0,0,0,0,0,0,0,0,0,0,0,0,0,0,0,0,0,0,0,0,0,0,0,0.0465,0.0465,0,0.0423,0.0423,0.0422,0.0425,0.0425,0.0426,0.0427,0.0382,0.038,0.0378,0,0,0,0,0,0,0,0,0,0,0,0,0,0.0547,0.0545,0.0465,0.0465,0.0464,0.0423,0.0423,0.0422,0.0425,0.0426,0.0426,0.0427,0.0382,0.038,0.0378,0,0,0,0,0,0,0,0,0,0,0,0,0,0.0509,0.0545,0.0465,0.0461,0.046,0.0423,0.0423,0.0422,0.0425,0.0426,0.0426,0.0427,0.0383,0.038,0.0378,0.0343,0,0,0.037,0.0369,0,0,0,0,0,0,0,0,0.0511,0.0506,0.0462,0.0461,0.046,0.043,0.0435,0.0395,0.0424,0.0438,0.0427,0.0428,0.0397,0.0393,0.0383,0.034,0.0339,0.0369,0.0368,0.0367,0.0366,0,0,0,0,0,0,0,0.0513,0.0507,0.0449,0.0461,0.046,0.046,0.0456,0.0427,0.0413,0.0437,0.0437,0.0432,0.0397,0.0386,0.0382,0.0338,0.037,0.0367,0.0365,0.0364,0.0263,0.0262,0,0,0,0,0,0,0.0517,0.051,0.045,0.0447,0.0488,0.0458,0.0453,0.0439,0.0413,0.041,0.0431,0.0432,0.039,0.0385,0.0381,0.0337,0.0367,0.0364,0.0363,0.0264,0.0263,0.0262,0,0,0,0,0,0,0.0519,0.0512,0.0452,0.0478,0.0471,0.0456,0.0439,0.0437,0.0427,0.0409,0.0406,0.0423,0.039,0.0384,0.0352,0.0335,0.0363,0.0361,0.0266,0.0264,0.0262,0.0249,0,0,0,0,0,0,0.0521,0.0513,0.0499,0.0478,0.0469,0.0424,0.0439,0.0436,0.0422,0.0423,0.04,0.0397,0.0391,0.0356,0.0349,0.0332,0.0358,0.0267,0.0265,0.0263,0.0251,0.0247,0.0244,0,0,0,0,0,0.0524,0.0497,0.0499,0.0491,0.0453,0.0423,0.0418,0.0411,0.0421,0.0407,0.0396,0.0398,0.0339,0.0353,0.0345,0.0327,0.0268,0.0265,0.0263,0.0252,0.0248,0.0244,0,0,0,0,0,0,0.0516,0.0494,0.0496,0.0461,0.0444,0.0424,0.0406,0.0407,0.0386,0.0388,0.038,0.0375,0.0342,0.0332,0.0348,0.0291,0.0304,0.03,0.0299,0.0294,0.0291,0.0294,0.0356,0,0,0,0,0,0.051,0.0489,0.0471,0.0442,0.0433,0.0421,0.0408,0.0404,0.0386,0.0379,0.0365,0.0347,0.0324,0.0309,0.0287,0.025,0.0244,0.0234,0.023,0.0228,0.0224,0.0202,0.0197,0.0254,0.0254,0.0254,0,0,0.0498,0.0483,0.047,0.0439,0.0426,0.0403,0.0415,0.039,0.0373,0.0375,0.0343,0.0333,0.0312,0.0277,0.026,0.0267,0.0207,0.0225,0.0222,0.022,0.0199,0.0194,0.0189,0.0252,0.0252,0.0253,0,0,0.0463,0.045,0.0424,0.0411,0.039,0.0382,0.0376,0.0356,0.0349,0.0317,0.0318,0.0297,0.0258,0.0243,0.023,0.0191,0.0192,0.0184,0.0165,0.0144,0.014,0.0136,0.012,0.0115,0.018,0.018,0.018,0,0.0449,0.0415,0.0411,0.0386,0.0372,0.0374,0.0347,0.0334,0.0307,0.0297,0.0305,0.0256,0.0242,0.0203,0.0193,0.0183,0.0175,0.0185,0.0141,0.0137,0.0133,0.0118,0.0113,0.0179,0.0179,0.0179,0.018,0,0.04,0.0376,0.0358,0.0332,0.0316,0.0291,0.0281,0.0266,0.0264,0.0256,0.0223,0.0207,0.0181,0.0172,0.017,0.0132,0.0137,0.0143,0.0156,0.0127,0.0113,0.0107,0.0178,0.0178,0.0179,0.0179,0,0,0.0357,0.033,0.0323,0.0311,0.0289,0.027,0.0244,0.022,0.0206,0.0188,0.0166,0.0133,0.0139,0.0124,0.012,0.0103,0.0071,0.0111,0.011,0.0103,0.0027,0.0021,0.0015,0.0072,0.0071,0.007,0.0028,0,0.0318,0.0273,0.0268,0.0228,0.0205,0.0207,0.0185,0.0168,0.016,0.0139,0.013,0.0106,0.0116,0.0107,0.009,0.0078,0.0055,0.0081,0.005,0.0048,0.0053,0.0008,0.0001,-0.0037,0.0023,0.0022,0.0021,0,0.0267,0.0248,0.0205,0.0186,0.0176,0.0156,0.0133,0.0114,0.0095,0.009,0.0075,0.0073,0.0046,0.0062,0.0023,0.0041,0.0028,0.0021,0.0019,0.0015,0.0032,0.0,-0.005,-0.0056,0.0013,0.0013,0.0014,0,0.0238,0.0202,0.0171,0.0162,0.0139,0.0124,0.0114,0.0097,0.0082,0.0062,0.0053,0.003,0.0017,-0.0001,-0.0009,0.0003,-0.0047,-0.0032,-0.0053,-0.0053,-0.0066,-0.0065,-0.012,-0.0071,-0.0071,-0.0071,-0.0071,0,0.0195,0.0168,0.0158,0.0139,0.0109,0.0104,0.0074,0.0065,0.0049,0.0028,0.0029,0.0008,0.0,-0.0021,-0.0027,-0.0059,-0.0064,-0.007,-0.0072,-0.0071,-0.0071,-0.0081,-0.0079,-0.0072,-0.0072,-0.0072,-0.0071,0,0.0157,0.0149,0.0116,0.0097,0.0092,0.0071,0.0055,0.0036,0.0028,0.0001,-0.0006,-0.0018,-0.0043,-0.0052,-0.0083,-0.0087,-0.0124,-0.0123,-0.0118,-0.0119,-0.014,-0.0139,-0.0205,-0.0214,-0.0158,-0.0158,-0.0159,0,0.0129,0.0108,0.0088,0.0074,0.0064,0.0041,0.0027,0.0021,0.0006,-0.0017,-0.0033,-0.0058,-0.0078,-0.0119,-0.0131,-0.0155,-0.0155,-0.0177,-0.0159,-0.0158,-0.0158,-0.0157,-0.016,-0.0181,-0.0181,-0.0182,-0.0182,0,0.0079,0.0077,0.0056,0.0034,0.0017,-0.0001,-0.0018,-0.003,-0.0038,-0.0055,-0.0081,-0.0097,-0.0128,-0.0153,-0.0177,-0.0188,-0.0188,-0.0187,-0.0194,-0.0195,-0.0192,-0.0195,-0.0129,-0.0186,-0.0186,-0.0186,-0.0185,-0.0185,0.0044,0.0026,0.0009,-0.0015,-0.0028,-0.0044,-0.0062,-0.0072,-0.0093,-0.0119,-0.0121,-0.0149,-0.0167,-0.0199,-0.0211,-0.0234,-0.0228,-0.0237,-0.0239,-0.0242,-0.0244,-0.0186,-0.0238,-0.0238,-0.0238,-0.0237,-0.0237,0,-0.0007,-0.0017,-0.0038,-0.0062,-0.0081,-0.0076,-0.0095,-0.0111,-0.0135,-0.0152,-0.0172,-0.0202,-0.0226,-0.024,-0.0264,-0.0279,-0.028,-0.0286,-0.0286,-0.0289,-0.0247,-0.024,-0.0285,-0.0285,-0.0285,-0.0285,-0.0285,-0.0285,-0.0035,-0.0067,-0.0071,-0.0109,-0.0119,-0.0147,-0.0158,-0.0173,-0.0186,-0.0219,-0.0239,-0.0247,-0.0263,-0.0289,-0.0311,-0.0314,-0.0324,-0.0331,-0.0335,-0.0296,-0.0291,-0.0287,-0.028,-0.0333,-0.0333,-0.0374,-0.0375,-0.0375]},{"header":{"parameterUnit":"m.s-1","parameterCategory":1,"la1":30.2991,"la2":30.254,"lo1":-89.0895,"lo2":-89.0444,"dy":0.0017,"dx":0.0017,"nx":28,"ny":28,"refTime":"2025-11-04T03:00:00:Z","depth":0,"parameterNumber":3,"parameterNumberName":"V-component_of_WINDS"},"data":[0,0,0,0,0,0,0,0,0,0,0,0,0,0,0,0,0,0,0,0,0,0,0,0,0,0,0,0,0,0,0,0,0,0,0,0,0,0,0,0,0,0,0,0,0,0,0,0,0,0,0,0,0,0,0,0,0,0,1.5289,1.5289,0,1.5299,1.5299,1.5299,1.5263,1.5262,1.5261,1.526,1.5268,1.5269,1.527,0,0,0,0,0,0,0,0,0,0,0,0,0,1.5237,1.5238,1.5289,1.5289,1.5289,1.5299,1.5299,1.5299,1.5263,1.5262,1.5261,1.5259,1.5268,1.5269,1.527,0,0,0,0,0,0,0,0,0,0,0,0,0,1.5255,1.5239,1.5289,1.5273,1.5271,1.5299,1.5299,1.5299,1.5264,1.5262,1.526,1.5259,1.5267,1.5269,1.5271,1.5314,0,0,1.5276,1.5277,0,0,0,0,0,0,0,0,1.5254,1.5257,1.5275,1.5274,1.5272,1.5278,1.5284,1.5304,1.5264,1.5266,1.526,1.5258,1.5273,1.5274,1.5279,1.5314,1.5315,1.5276,1.5277,1.5278,1.5279,0,0,0,0,0,0,0,1.5253,1.5256,1.5293,1.5275,1.5274,1.5264,1.5265,1.5287,1.5278,1.5266,1.5263,1.5265,1.5271,1.5277,1.5279,1.5315,1.5276,1.5278,1.5279,1.528,1.5386,1.5388,0,0,0,0,0,0,1.5254,1.5255,1.5293,1.5293,1.5259,1.5266,1.5267,1.5278,1.5278,1.5276,1.5267,1.5264,1.5275,1.5277,1.5279,1.533,1.5278,1.528,1.5281,1.5385,1.5387,1.5389,0,0,0,0,0,0,1.5253,1.5258,1.5292,1.5274,1.5277,1.5269,1.5281,1.5279,1.5285,1.5278,1.5276,1.5275,1.5274,1.5277,1.5306,1.5329,1.5281,1.5282,1.5383,1.5385,1.5388,1.5431,0,0,0,0,0,0,1.5252,1.5257,1.5274,1.5274,1.5278,1.5319,1.5283,1.528,1.5288,1.5284,1.5285,1.5284,1.5273,1.5303,1.5308,1.5331,1.5284,1.538,1.5384,1.5387,1.5428,1.5435,1.5441,0,0,0,0,0,1.525,1.5285,1.5275,1.528,1.5299,1.5321,1.5323,1.531,1.529,1.5307,1.5303,1.5284,1.5327,1.5307,1.5311,1.5335,1.5379,1.5383,1.5387,1.5425,1.5434,1.5441,0,0,0,0,0,0,1.5287,1.5285,1.5274,1.531,1.5316,1.5315,1.5335,1.532,1.5331,1.5327,1.531,1.531,1.5342,1.5342,1.532,1.5378,1.5349,1.5354,1.5376,1.5385,1.5392,1.539,1.5285,0,0,0,0,0,1.53,1.5318,1.5315,1.5348,1.5351,1.5343,1.5352,1.5342,1.5346,1.5348,1.5346,1.5351,1.5366,1.5376,1.5389,1.5428,1.5427,1.5447,1.5454,1.546,1.5464,1.5484,1.5493,1.5402,1.5401,1.5401,0,0,1.5325,1.5327,1.5339,1.5355,1.5358,1.5377,1.5345,1.5366,1.5379,1.5351,1.5379,1.5378,1.5382,1.5417,1.5432,1.5417,1.5489,1.5465,1.5469,1.547,1.5489,1.5498,1.5506,1.5404,1.5404,1.5403,0,0,1.5382,1.5385,1.5413,1.5417,1.5423,1.5417,1.5424,1.5425,1.5424,1.5451,1.5431,1.5446,1.5472,1.5476,1.5481,1.5541,1.5524,1.5546,1.5581,1.5601,1.5609,1.5615,1.5635,1.5643,1.555,1.555,1.555,0,1.5412,1.5441,1.5428,1.5451,1.5459,1.5436,1.5463,1.5468,1.5477,1.5483,1.5467,1.5499,1.55,1.5535,1.555,1.5556,1.5562,1.5545,1.5609,1.5615,1.5621,1.564,1.5648,1.5553,1.5553,1.5552,1.5552,0,1.5478,1.5498,1.552,1.5531,1.5541,1.5566,1.5557,1.5569,1.5558,1.5554,1.5583,1.5584,1.5597,1.5605,1.5595,1.5639,1.563,1.5612,1.5582,1.5632,1.565,1.5657,1.5557,1.5556,1.5555,1.5554,0,0,1.5556,1.5561,1.5569,1.5574,1.558,1.5594,1.5619,1.5632,1.5643,1.5651,1.567,1.5693,1.5676,1.5683,1.5673,1.5691,1.5738,1.567,1.567,1.5682,1.5786,1.5798,1.5807,1.5727,1.5728,1.5729,1.5785,0,1.5611,1.5653,1.5643,1.5684,1.5702,1.5682,1.5703,1.5708,1.5706,1.572,1.5717,1.5733,1.5711,1.5714,1.5732,1.5728,1.5758,1.5724,1.5744,1.5745,1.5742,1.5817,1.583,1.5882,1.5792,1.5793,1.5794,0,1.568,1.5691,1.5735,1.5738,1.5746,1.5765,1.5777,1.5791,1.5797,1.5794,1.5802,1.5789,1.5812,1.5784,1.5816,1.5794,1.5801,1.5801,1.5803,1.5803,1.5771,1.5818,1.5899,1.5906,1.5805,1.5804,1.5804,0,1.5731,1.5758,1.5787,1.5792,1.5797,1.5811,1.5814,1.5818,1.5827,1.5838,1.5844,1.5857,1.5863,1.5874,1.5864,1.5845,1.5897,1.5869,1.5894,1.5895,1.5905,1.5904,1.5987,1.5912,1.5912,1.5912,1.5912,0,1.5792,1.582,1.5811,1.5829,1.5859,1.5848,1.5877,1.5877,1.5882,1.5899,1.5882,1.5898,1.5886,1.5901,1.5894,1.5921,1.5924,1.5922,1.5919,1.5923,1.5923,1.5926,1.5922,1.5914,1.5914,1.5913,1.5913,0,1.5854,1.5849,1.588,1.5883,1.5885,1.5906,1.5908,1.5925,1.5922,1.5944,1.5948,1.5943,1.596,1.5953,1.597,1.5965,1.6,1.5994,1.5999,1.5996,1.6022,1.602,1.6109,1.612,1.6039,1.604,1.6041,0,1.5893,1.5914,1.5919,1.593,1.5934,1.5952,1.5962,1.5952,1.5963,1.5972,1.5987,1.6003,1.6015,1.6044,1.6041,1.6054,1.6047,1.6078,1.6049,1.6052,1.6046,1.6045,1.6047,1.6083,1.6084,1.6085,1.6085,0,1.5962,1.5959,1.5974,1.5989,1.6001,1.6012,1.6021,1.6031,1.6022,1.6034,1.6052,1.6062,1.6081,1.6097,1.6109,1.6111,1.6096,1.6095,1.6101,1.6104,1.6106,1.6105,1.6013,1.6092,1.6092,1.6091,1.6091,1.609,1.6013,1.603,1.6037,1.6055,1.6061,1.6071,1.6086,1.6086,1.6101,1.6116,1.611,1.6131,1.6137,1.6152,1.6156,1.6171,1.6159,1.6169,1.6171,1.6173,1.6176,1.6105,1.6174,1.6173,1.6173,1.6173,1.6173,0,1.608,1.6084,1.6101,1.6115,1.6129,1.6116,1.6126,1.6138,1.6157,1.6164,1.6177,1.6198,1.6213,1.6213,1.6227,1.624,1.6234,1.6244,1.6242,1.6243,1.6187,1.6179,1.6249,1.6249,1.6249,1.6249,1.6248,1.6248,1.6117,1.6146,1.6144,1.6176,1.618,1.6201,1.6208,1.6216,1.6222,1.6246,1.626,1.626,1.6264,1.6278,1.6292,1.6292,1.6297,1.631,1.6307,1.6254,1.6247,1.6239,1.6232,1.6311,1.6311,1.6361,1.6361,1.6362]}]]